Overview Statistics Trail Chart Weather Telemetry Raw packets
 

This is the latest recevied weather packets stored in our database for station/object KN6WGU. If no packets are shown the sender has not sent any weather packets the latest 10 day(s).

<< 95 96 97 98 99 100 101 >>
Time Temp. Humidity Pressure Rain* Wind** Luminosity Snow
1787904402 21.11° C 90% 1010.1 hPa 0 mm - 0 W/m² -
1787904098 21.11° C 91% 1010.1 hPa 0 mm - 0 W/m² -
1787903793 21.11° C 92% 1010.3 hPa 0 mm - 0 W/m² -
1787903489 21.11° C 93% 1010 hPa 0 mm - 0 W/m² -
1787903184 21.11° C 94% 1009.9 hPa 0 mm - 0 W/m² -
1787902881 20.56° C 95% 1010 hPa 0 mm - 0 W/m² -
1787902577 20.56° C 96% 1009.8 hPa 0 mm - 0 W/m² -
1787902272 19.44° C 96% 1009.9 hPa 0 mm - 0 W/m² -
1787901967 18.33° C 96% 1009.6 hPa 0 mm - 0 W/m² -
1787901656 17.22° C 95% 1009.8 hPa 0 mm - 0 W/m² -
1787901352 17.22° C 94% 1009.7 hPa 0 mm - 0 W/m² -
1787901048 17.78° C 94% 1009.7 hPa 0 mm - 0 W/m² -
1787900748 17.22° C 94% 1009.6 hPa 0 mm - 0 W/m² -
1787900438 17.22° C 94% 1009.6 hPa 0 mm - 0 W/m² -
1787900137 17.78° C 94% 1009.3 hPa 0 mm - 0 W/m² -
1787899832 17.78° C 93% 1009.4 hPa 0 mm - 0 W/m² -
1787899527 17.78° C 93% 1009.3 hPa 0 mm - 0 W/m² -
1787899222 17.78° C 93% 1009.5 hPa 0 mm - 0 W/m² -
1787898917 17.78° C 93% 1009.6 hPa 0 mm - 0 W/m² -
1787898614 17.78° C 92% 1009.5 hPa 0 mm - 0 W/m² -
1787898311 17.78° C 92% 1009.5 hPa 0 mm - 0 W/m² -
1787898006 17.78° C 92% 1009.5 hPa 0 mm - 0 W/m² -
1787897702 17.78° C 92% 1009.7 hPa 0 mm - 0 W/m² -
1787897400 17.78° C 92% 1009.5 hPa 0 mm - 0 W/m² -
1787897099 17.78° C 91% 1009.6 hPa 0 mm - 0 W/m² -

* Rain latest hour (hover to see other rain measurements)
** Current wind speed in m/s (hover to see current wind gust speed)